• In Uzbekistan
  • List of Countries
  • For 7 days
  • Water Temperature
  • Satellite Maps
  • Weather Map
  • Weather Widgets
  • user-avatar
    Login

    Hourly Weather Borzhomi

    Today, 11 December, Monday

    Time Temperature Precipitation Wind Pressure Humidity
    00:00 -2°C° 0 mm 2 mps 667 mmHg 66%
    01:00 -2°C° 0 mm 2 mps 667 mmHg 66%
    02:00 -2°C° 0 mm 2 mps 667 mmHg 65%
    03:00 -3°C° 0 mm 2 mps 667 mmHg 65%
    04:00 -3°C° 0 mm 2 mps 668 mmHg 64%
    05:00 -2°C° 0 mm 2 mps 668 mmHg 63%
    06:00 -2°C° 0 mm 2 mps 668 mmHg 62%
    07:00 -2°C° 0 mm 2 mps 669 mmHg 62%
    08:00 -1°C° 0 mm 2 mps 669 mmHg 63%
    09:00 +1°C° 0 mm 2 mps 669 mmHg 62%
    10:00 +2°C° 0 mm 2 mps 670 mmHg 62%
    11:00 +3°C° 0 mm 2 mps 670 mmHg 63%
    12:00 +4°C° 0 mm 2 mps 670 mmHg 63%
    13:00 +4°C° 0 mm 2 mps 670 mmHg 68%
    14:00 +3°C° 0 mm 2 mps 670 mmHg 72%
    15:00 +3°C° 0 mm 2 mps 670 mmHg 77%
    16:00 +2°C° 0 mm 2 mps 671 mmHg 80%
    17:00 +1°C° 0 mm 2 mps 671 mmHg 84%
    18:00 +1°C° 0 mm 1 mps 671 mmHg 87%
    19:00 -1°C° 0 mm 2 mps 671 mmHg 86%
    20:00 -1°C° 0 mm 2 mps 672 mmHg 84%
    21:00 -1°C° 0 mm 2 mps 672 mmHg 82%
    22:00 -1°C° 0 mm 2 mps 672 mmHg 80%
    23:00 -1°C° 0 mm 2 mps 672 mmHg 77%

    Tomorrow, 12 December, Tuesday

    Time Temperature Precipitation Wind Pressure Humidity
    00:00 -2°C° 0 mm 2 mps 672 mmHg 74%
    01:00 -1°C° 0 mm 2 mps 672 mmHg 72%
    02:00 -1°C° 0 mm 2 mps 672 mmHg 69%
    03:00 -1°C° 0 mm 2 mps 672 mmHg 67%
    04:00 -1°C° 0 mm 2 mps 672 mmHg 65%
    05:00 -1°C° 0 mm 2 mps 672 mmHg 64%
    06:00 -1°C° 0 mm 2 mps 671 mmHg 63%
    07:00 -1°C° 0 mm 2 mps 672 mmHg 61%
    08:00 +1°C° 0 mm 2 mps 672 mmHg 60%
    09:00 +2°C° 0 mm 2 mps 672 mmHg 59%
    10:00 +5°C° 0 mm 1 mps 672 mmHg 56%
    11:00 +6°C° 0 mm 1 mps 672 mmHg 54%
    12:00 +8°C° 0 mm 1 mps 672 mmHg 52%
    13:00 +8°C° 0 mm 1 mps 672 mmHg 54%
    14:00 +8°C° 0 mm 1 mps 671 mmHg 55%
    15:00 +7°C° 0 mm 0 mps 671 mmHg 57%
    16:00 +6°C° 0 mm 1 mps 671 mmHg 58%
    17:00 +5°C° 0 mm 1 mps 671 mmHg 59%
    18:00 +3°C° 0 mm 2 mps 671 mmHg 60%
    19:00 +2°C° 0 mm 2 mps 671 mmHg 58%
    20:00 +2°C° 0 mm 2 mps 671 mmHg 57%
    21:00 +2°C° 0 mm 2 mps 671 mmHg 56%
    22:00 +2°C° 0 mm 2 mps 671 mmHg 55%
    23:00 +2°C° 0 mm 2 mps 671 mmHg 54%

    Day after tomorrow, 13 December, Wednesday

    Time Temperature Precipitation Wind Pressure Humidity
    00:00 +2°C° 0 mm 2 mps 671 mmHg 52%
    01:00 +2°C° 0 mm 2 mps 671 mmHg 52%
    02:00 +2°C° 0 mm 2 mps 670 mmHg 52%
    03:00 +1°C° 0 mm 2 mps 670 mmHg 51%
    04:00 +1°C° 0 mm 2 mps 670 mmHg 51%
    05:00 +1°C° 0 mm 2 mps 670 mmHg 51%
    06:00 +1°C° 0 mm 2 mps 670 mmHg 51%
    07:00 +2°C° 0 mm 2 mps 670 mmHg 51%
    08:00 +3°C° 0 mm 2 mps 670 mmHg 51%
    09:00 +3°C° 0 mm 2 mps 670 mmHg 50%
    10:00 +5°C° 0 mm 2 mps 670 mmHg 50%
    11:00 +6°C° 0 mm 2 mps 670 mmHg 49%
    12:00 +8°C° 0 mm 2 mps 670 mmHg 48%
    13:00 +8°C° 0 mm 2 mps 669 mmHg 50%
    14:00 +7°C° 0 mm 2 mps 669 mmHg 52%
    15:00 +7°C° 0 mm 2 mps 669 mmHg 54%
    16:00 +6°C° 0 mm 2 mps 669 mmHg 56%
    17:00 +5°C° 0 mm 2 mps 668 mmHg 58%
    18:00 +3°C° 0 mm 2 mps 668 mmHg 60%
    19:00 +3°C° 0 mm 2 mps 668 mmHg 60%
    20:00 +3°C° 0 mm 2 mps 668 mmHg 59%
    21:00 +3°C° 0 mm 2 mps 668 mmHg 59%
    22:00 +2°C° 0 mm 2 mps 668 mmHg 59%
    23:00 +2°C° 0 mm 2 mps 668 mmHg 58%

    14 December, Thursday

    Time Temperature Precipitation Wind Pressure Humidity
    00:00 +2°C° 0 mm 2 mps 668 mmHg 58%
    01:00 +2°C° 0 mm 2 mps 668 mmHg 59%
    02:00 +2°C° 0 mm 2 mps 668 mmHg 59%
    03:00 +2°C° 0 mm 2 mps 668 mmHg 59%
    04:00 +1°C° 0 mm 2 mps 668 mmHg 60%
    05:00 +1°C° 0 mm 2 mps 668 mmHg 60%
    06:00 +1°C° 0 mm 2 mps 667 mmHg 60%
    07:00 +2°C° 0 mm 2 mps 668 mmHg 59%
    08:00 +2°C° 0 mm 2 mps 668 mmHg 58%
    09:00 +3°C° 0 mm 2 mps 668 mmHg 57%
    10:00 +4°C° 0 mm 2 mps 668 mmHg 55%
    11:00 +6°C° 0 mm 2 mps 667 mmHg 53%
    12:00 +7°C° 0 mm 2 mps 667 mmHg 50%
    13:00 +7°C° 0 mm 2 mps 667 mmHg 52%
    14:00 +7°C° 0 mm 2 mps 667 mmHg 53%
    15:00 +7°C° 0 mm 2 mps 667 mmHg 55%
    16:00 +5°C° 0 mm 2 mps 666 mmHg 57%
    17:00 +4°C° 0 mm 2 mps 666 mmHg 60%
    18:00 +2°C° 0 mm 2 mps 666 mmHg 62%
    19:00 +2°C° 0 mm 2 mps 666 mmHg 61%
    20:00 +2°C° 0 mm 2 mps 666 mmHg 60%
    21:00 +1°C° 0 mm 2 mps 666 mmHg 59%
    22:00 +1°C° 0 mm 2 mps 666 mmHg 59%
    23:00 +1°C° 0 mm 2 mps 666 mmHg 59%

    15 December, Friday

    Time Temperature Precipitation Wind Pressure Humidity
    00:00 +1°C° 0 mm 2 mps 666 mmHg 58%
    01:00 -1°C° 0 mm 2 mps 666 mmHg 58%
    02:00 -1°C° 0 mm 2 mps 666 mmHg 58%
    03:00 -1°C° 0 mm 2 mps 666 mmHg 58%
    04:00 -1°C° 0 mm 2 mps 666 mmHg 58%
    05:00 -1°C° 0 mm 2 mps 666 mmHg 57%
    06:00 -1°C° 0 mm 2 mps 666 mmHg 57%
    07:00 +1°C° 0 mm 2 mps 666 mmHg 55%
    08:00 +1°C° 0 mm 2 mps 667 mmHg 53%
    09:00 +2°C° 0 mm 2 mps 667 mmHg 51%
    10:00 +5°C° 0 mm 1 mps 667 mmHg 49%
    11:00 +6°C° 0 mm 1 mps 667 mmHg 46%
    12:00 +8°C° 0 mm 1 mps 667 mmHg 44%
    13:00 +8°C° 0 mm 1 mps 667 mmHg 45%
    14:00 +7°C° 0 mm 1 mps 667 mmHg 47%
    15:00 +7°C° 0 mm 1 mps 667 mmHg 48%
    16:00 +6°C° 0 mm 1 mps 667 mmHg 51%
    17:00 +5°C° 0 mm 1 mps 668 mmHg 53%
    18:00 +4°C° 0 mm 1 mps 668 mmHg 55%
    19:00 +3°C° 0 mm 1 mps 668 mmHg 54%
    20:00 +3°C° 0 mm 1 mps 668 mmHg 53%
    21:00 +3°C° 0 mm 1 mps 668 mmHg 53%
    22:00 +3°C° 0 mm 1 mps 668 mmHg 52%
    23:00 +3°C° 0 mm 1 mps 668 mmHg 52%

    16 December, Saturday

    Time Temperature Precipitation Wind Pressure Humidity
    00:00 +1°C° 0 mm 2 mps 668 mmHg 51%
    01:00 +1°C° 0 mm 2 mps 668 mmHg 52%
    02:00 +1°C° 0 mm 2 mps 668 mmHg 52%
    03:00 +1°C° 0 mm 2 mps 668 mmHg 52%
    04:00 +1°C° 0 mm 2 mps 668 mmHg 53%
    05:00 +1°C° 0 mm 2 mps 668 mmHg 53%
    06:00 +1°C° 0 mm 2 mps 668 mmHg 54%
    07:00 +1°C° 0 mm 2 mps 668 mmHg 53%
    08:00 +2°C° 0 mm 2 mps 669 mmHg 53%
    09:00 +3°C° 0 mm 2 mps 669 mmHg 52%
    10:00 +4°C° 0 mm 2 mps 669 mmHg 51%
    11:00 +5°C° 0 mm 2 mps 669 mmHg 50%
    12:00 +7°C° 0 mm 3 mps 668 mmHg 49%
    13:00 +7°C° 0 mm 2 mps 668 mmHg 50%
    14:00 +6°C° 0 mm 2 mps 668 mmHg 52%
    15:00 +6°C° 0 mm 2 mps 668 mmHg 53%
    16:00 +5°C° 0 mm 2 mps 668 mmHg 56%
    17:00 +4°C° 0 mm 2 mps 668 mmHg 58%
    18:00 +2°C° 0 mm 2 mps 668 mmHg 61%
    19:00 +2°C° 0 mm 2 mps 668 mmHg 59%
    20:00 +2°C° 0 mm 2 mps 669 mmHg 58%
    21:00 +1°C° 0 mm 2 mps 669 mmHg 56%
    22:00 +1°C° 0 mm 2 mps 669 mmHg 56%
    23:00 +1°C° 0 mm 2 mps 669 mmHg 55%
    Show more